Orbital Elements at Epoch 2459200.5 (2020-Dec-17.0) TDB
Reference: JPL 25 (heliocentric ecliptic J2000)
Element | Value | Uncertainty (1-sigma) | Units |
e | .1956905764197193 | 4.0682e-08 | |
a | 2.307570754329074 | 1.1833e-08 | au |
q | 1.856000903285131 | 9.3673e-08 | au |
i | 23.36911624427727 | 6.8193e-06 | deg |
node | 88.72172209682921 | 1.0706e-05 | deg |
peri | 223.0670091694168 | 2.3929e-05 | deg |
M | 203.0099997382401 | 2.4698e-05 | deg |
tp | 2459758.842202669991 (2022-Jun-28.34220267) | 8.9346e-05 | TDB |
period | 1280.356663647688 3.51 | 9.8482e-06 2.696e-08 | d yr |
n | .2811716533535065 | 2.1627e-09 | deg/d |
Q | 2.759140605373018 | 1.4148e-08 | au |
|
| | Orbit Determination Parameters
Additional Information
|